Aérodrome :
LOGIN :

S'inscrire | Disclaimer

   EN    FR    IT 

 










Légende :    VFR   VFR Marginal   IFR   IFR Intensif   IFR Très Intensif
Visi : 
Plafond : 
>= 8 km
>= 3000ft
5 à 8 km
1000 à 3000 ft
1500m à 5 km
500 à 1000 ft
800 à 1500m
200 à 500 ft
< 800m
< 200 ft
Symboles :   Orages  Brouillard  Fortes neiges  Fortes précipitations  Vent > 20 kt
SIGMETs :   Divers  Orages  Givrage  Turbulence  Onde Orograph.  Cendres Volcan.






- Altitude de l'aérodrome : 327 ft
- Code IATA : BHX


EGBB - Birmingham

DERNIER METAR :
  • 242250Z 29006KT CAVOK 14/03 Q1034

METARs EXPIRÉS :
  • 242220Z 31007KT CAVOK 15/03 Q1034
  • 242150Z 30006KT CAVOK 16/02 Q1033
  • 242120Z 29005KT CAVOK 16/02 Q1033
  • 242050Z 28006KT CAVOK 16/03 Q1033

TAF TAF EGBB
Valide du 24 à 18h jusqu'au 25 à 18h UTC


241659Z 2418/2518 28010KT 9999 FEW035
BECMG 2418/2421 VRB03KT
PROB30 2500/2506 4000 BR MIFG
BECMG 2509/2512 23010KT
ATIS : +44 121 780 0910



MET'MAP, la Météo Aéronautique d'un coup d'oeil ! - Copyright ORBIFLY Décembre 2007 - Disclaimer

ORBIFLY MET'MAP TEAM :

Programmation & Développement : Alexandra Zaïnal
Sur une idée originale de : Baudouin d'Aumeries
Assistance à la programmation : Marc-Olivier Méhu
Soutien technique & logistique : Manuel Goepfert

Contact : metmap@orbifly.com




SOURCES & CREDITS :

   NOAA